Regional Weather Roundup
Issued by NWS Sioux Falls, SD

Home | Current Version | Previous Version | Graphics & Text | Print | Product List | Glossary On
Versions: 1 2 3 4 5 6 7 8 9 10 11 12 13 14 15 16 17 18 19 20 21 22 23 24 25 26 27 28 29 30 31 32 33 34 35 36 37 38 39 40 41 42 43 44 45 46 47 48 49 50
000
ASUS43 KFSD 271810
RWRFSD

WEATHER ROUNDUP FOR SE SOUTH DAKOTA/SW MINNESOTA/NW IOWA
NATIONAL WEATHER SERVICE SIOUX FALLS SD
100 PM CDT TUE JUN 27 2017

NOTE: "FAIR" INDICATES FEW OR NO CLOUDS BELOW 12,000 FEET WITH NO
SIGNIFICANT WEATHER AND OR OBSTRUCTIONS TO VISIBILITY.


SDZ038>040-050-052>070-271900-
SOUTHEAST SOUTH DAKOTA

CITY           SKY/WX    TMP DP  RH WIND       PRES   REMARKS
BROOKINGS      SUNNY     73  47  39 S22G30    29.90F
CHAMBERLAIN    SUNNY     82  56  41 SE22G31   29.77F
6HR MIN TEMP:  57; 6HR MAX TEMP:  82;

HURON          SUNNY     77  49  37 S23G32    29.82F
6HR MIN TEMP:  51; 6HR MAX TEMP:  77;

MADISON        FAIR      70  52  52 S24G32    29.91F
MITCHELL       SUNNY     78  47  33 S16G31    29.86F
6HR MIN TEMP:  52; 6HR MAX TEMP:  78;

SIOUX FALLS    PTSUNNY   74  54  49 S21G29    29.93F
6HR MIN TEMP:  56; 6HR MAX TEMP:  74;

WINNER         FAIR      85  57  38 S26G38    29.75F
YANKTON        SUNNY     77  53  43 S21       29.91F
$$

MNZ071-072-080-081-089-090-097-098-271900-
SOUTHWEST MINNESOTA

CITY           SKY/WX    TMP DP  RH WIND       PRES   REMARKS
FAIRMONT       SUNNY     72  44  36 S13       30.01F
JACKSON        SUNNY     72  41  33 S13G22    30.01F
LUVERNE        SUNNY     72  43  35 S21       29.96F
MARSHALL       SUNNY     74  44  34 S22G30    29.92F
6HR MIN TEMP:  54; 6HR MAX TEMP:  74;

MONTEVIDEO     CLOUDY    73  45  35 SW14G24   29.92F
PIPESTONE      SUNNY     73  45  35 S21G28    29.94F
REDWOOD FALLS  CLOUDY    75  40  28 S15G24    29.95F
TRACY          SUNNY     74  46  36 S14G24    29.96F
WINDOM         SUNNY     73  41  31 SE15G23   29.99F
WORTHINGTON    SUNNY     72  45  37 S21G29    29.98F
$$

IAZ001>003-012>014-020>022-031-032-NEZ013-014-SDZ071-271900-
NORTHWEST IOWA

CITY           SKY/WX    TMP DP  RH WIND       PRES   REMARKS
CHEROKEE       SUNNY     73  47  38 S16G24    29.99F
DENISON        SUNNY     73  50  43 S12G21    30.02F
ESTHERVILLE    SUNNY     71  43  36 S16G26    30.01F
LE MARS        SUNNY     73  46  38 S18G26    29.97F
ORANGE CITY    SUNNY     72  46  40 S15G23    29.98F
SHELDON        SUNNY     73  46  38 S18G29    29.97F
SIOUX CITY     SUNNY     76  53  44 S17G26    29.97F
6HR MIN TEMP:  50; 6HR MAX TEMP:  76;

SPENCER        SUNNY     75  44  33 S17G25    30.00F
6HR MIN TEMP:  51; 6HR MAX TEMP:  76;

STORM LAKE     SUNNY     73  45  35 S15G25    30.01F
$$

ABBREVIATIONS USED IN REMARKS
   TC - TEMPERATURE IN CELSIUS
  WCI - WIND CHILL INDEX
   HX - HEAT INDEX
  VSB - VISIBILITY





USA.gov is the U.S. government's official web portal to all federal, state and local government web resources and services.